Regional Weather Roundup
Issued by NWS Nashville, TN

Home | Current Version | Previous Version | Text Only | Print | Product List | Glossary On
Versions: 1 2 3 4 5 6 7 8 9 10 11 12 13 14 15 16 17 18 19 20 21 22 23 24 25 26 27 28 29 30 31 32 33 34 35 36 37 38 39 40 41 42 43 44 45 46 47 48 49 50
000
ASUS44 KOHX 191810
RWROHX
MIDDLE TENNESSEE HOURLY WEATHER ROUNDUP
NATIONAL WEATHER SERVICE NASHVILLE TN
100 PM CDT SUN MAY 19 2019

NOTE: "FAIR" INDICATES FEW OR NO CLOUDS BELOW 12,000 FEET WITH
NO SIGNIFICANT WEATHER AND/OR OBSTRUCTIONS TO VISIBILITY.

* THESE REPORTS ARE NOT UNDER NWS QUALITY CONTROL AND MAY NOT
  REPORT WEATHER SUCH AS PRECIPITATION AND FOG.


TNZ005>011-023>034-057-059-062>066-078-080-191900
...NORTHERN MIDDLE TENNESSEE...

CITY           SKY/WX    TMP DP  RH WIND       PRES   REMARKS
CLARKSVILLE    CLOUDY    74  67  78 S10       29.87S
CROSSVILLE       N/A     78  57  48 S13G26    30.01F
DICKSON        CLOUDY    75  68  78 SW13G20   29.89S
LEBANON        MOSUNNY   81  55  41 S15G25    29.89S
LIVINGSTON     SUNNY     81  57  44 SW18G29   29.95S
NASHVILLE      CLOUDY    82  58  43 S15G25    29.91S
PORTLAND       MOSUNNY   77  61  57 S15G24    29.89S
ROCKWOOD       MOSUNNY   81  61  50 S13G23    30.02S
SMYRNA           N/A     80  59  48 S9        29.93S
SPARTA         SUNNY     82  57  42 S26G35    29.95S
SPRINGFIELD    PTSUNNY   77  64  65 S14G23    29.88S
WEST NASHVILLE MOSUNNY   81  63  54 S15G24    29.89R
$$
TNZ056-058-060-061-075>077-079-093>097-191900
...SOUTHERN MIDDLE TENNESSEE...

CITY           SKY/WX    TMP DP  RH WIND       PRES   REMARKS
COLUMBIA       MOSUNNY   72  72 100 S9        29.91S
FAYETTEVILLE   SUNNY     82  54  36 S17G26    29.94F
LAWRENCEBURG   PTSUNNY   72  68  88 VRB5      29.95R
LEWISBURG      PTSUNNY   81  59  47 S15G25    29.92S
MCMINNVILLE    SUNNY     82  57  42 SW9G21    29.95S
MURFREESBORO   SUNNY     81  55  41 SW8G18    29.91S
PULASKI        PTSUNNY   79  64  61 VRB7      29.93S
SHELBYVILLE    SUNNY     82  55  39 SW18G24   29.93F
TULLAHOMA      SUNNY     82  54  36 S20G28    29.94F
WINCHESTER     SUNNY     84  55  37 SW16      29.97S
$$


...KEY TO REMARKS...
VSB - VISIBILITY IN MILES
WCI - WIND CHILL INDEX
HX  - HEAT INDEX




USA.gov is the U.S. government's official web portal to all federal, state and local government web resources and services.